NOAA Logo National Centers for Environmental Information

formerly the National Oceanographic Data Center (NODC)...  more on NCEI

NOAA Satellite and Information Service

CRUISE INFORMATION RECORD AND DATA
 
NODC Cruise 48-1602 Information
WOD CRUISE REFERENCE #48001602
DATA:
in WOD format 48001602_XBT.dat
48001602_CTD.dat
in 'csv' format 48001602_XBT.csv
48001602_CTD.csv
METADATA:
COUNTRYITALY (48)
NODC ACCESSION NUMBER (XBT)1747
NODC ACCESSION NUMBER (XBT)1751
NODC ACCESSION NUMBER (XBT)1870
NODC ACCESSION NUMBER (XBT)1879
NODC ACCESSION NUMBER (XBT)38514
SHIP NAME (1747)URANIA (Call sign IQSU)
INSTITUTE (38514)NATIONAL AGENCY FOR NEW TECHNOLOGIES; ENERGY AND THE ENVIRONMENT (ENEA)
PROJECT (38514)MFSTEP (MEDITERRANEAN FORECASTING SYSTEM: TOWARD ENVIRONMENTAL PREDICTION)
ORIGINATORS CRUISE CODE (XBT)IQSU
PRIMARY INVESTIGATORS 
All ParametersRESEGHETTI; FRANCO
SUBMITTING INFORMATION (1747) 
SUBMITTING INSTITUTEMIN OF SCIENTIFIC RES OCEANOGRAPHIC AND FISH RES CENTER (ALEXANDRIA)
SUBMITTING INFORMATION (1751) 
SUBMITTING INSTITUTEMIN OF SCIENTIFIC RES OCEANOGRAPHIC AND FISH RES CENTER (ALEXANDRIA)
SUBMITTING INFORMATION (1870) 
SUBMITTING INSTITUTEMIN OF SCIENTIFIC RES OCEANOGRAPHIC AND FISH RES CENTER (ALEXANDRIA)
SUBMITTING INFORMATION (1879) 
SUBMITTING INSTITUTEMIN OF SCIENTIFIC RES OCEANOGRAPHIC AND FISH RES CENTER (ALEXANDRIA)
SUBMITTING INFORMATION (38514) 
SUBMITTING INSTITUTENATIONAL AGENCY FOR NEW TECHNOLOGIES; ENERGY AND THE ENVIRONMENT (ENEA)
SUBMITTING INVESTIGATORRESEGHETTI; FRANCO
SUBMISSION DATE2/2/2008
DATE OF FIRST CAST10/ 4/2004
DATE OF LAST CAST10/22/2004
TOTAL NUMBER OF CASTS94
Temperature [t] PROFILES94
Salinity [s] PROFILES6
Pressure [w] PROFILES6
UNIQUE CAST #LATITUDELONGITUDEDATETIMEPROBE TYPE
1020996542.33910.41210/4/200420.867XBT
1020996642.16910.54910/4/200421.900XBT
1020996741.99910.68410/4/200422.967XBT
1020997441.85810.79810/5/20040.017XBT
1020997641.68310.93810/5/20041.050XBT
1020997741.51711.07310/5/20042.083XBT
1020997841.33611.19710/5/20043.117XBT
1020998141.16911.29910/5/20044.100XBT
1020998441.00311.39910/5/20045.083XBT
1020998740.83511.50010/5/20046.067XBT
1020998940.66811.63210/5/20047.100XBT
1020999040.49511.77110/5/20048.183XBT
1020999140.33411.89910/5/20049.200XBT
1020999440.16812.03310/5/200410.267XBT
1020999840.00312.16610/5/200411.333XBT
1021000139.75211.88910/5/200413.183XBT
1021000239.56011.86910/5/200414.267XBT
1021000339.33611.83410/5/200415.417XBT
1021000539.12611.81910/5/200416.517XBT
1021000938.90511.79310/5/200417.667XBT
1021001138.68311.76710/5/200418.783XBT
1021001438.47111.74310/5/200419.917XBT
1021007938.2568.76110/8/20041.083XBT
1021008438.2058.15110/8/20046.217XBT
1021008938.1597.51710/8/200411.500XBT
1021009638.1186.99210/8/200416.883XBT
1021010338.0676.24210/8/200422.267XBT
1021010838.0205.63710/9/20043.717XBT
1021011838.0084.97110/9/20049.017XBT
1021012837.8854.24810/9/200414.617XBT
1021013837.7613.73910/9/200420.150XBT
1021014837.6013.11110/10/20042.833XBT
1021016237.4552.47710/10/200412.417XBT
1021017537.2941.81910/10/200419.533XBT
1021018637.1301.21810/11/20042.467XBT
1021021836.9360.74810/11/20048.683XBT
1021022636.7560.55710/11/200410.000XBT
1021029737.161-0.83710/12/20047.317XBT
1021030237.007-0.89910/12/20048.217XBT
1021030536.802-0.94910/12/20049.333XBT
1021031936.553-1.29610/12/200414.283XBT
1021035836.344-1.79310/13/20041.567XBT
1021039436.134-2.40010/13/200412.283XBT
1021041336.062-3.10010/13/200417.183XBT
1021042136.016-3.71310/13/200420.817XBT
1021044935.985-4.57510/14/20041.933XBT
1021046635.972-5.04210/14/20045.233XBT
1021052435.964-6.63610/14/200417.350XBT
1021056535.972-4.95910/15/20042.767XBT
1021057036.017-4.82310/15/20043.400XBT
1021057636.065-4.44910/15/20044.883XBT
1021058936.114-4.11610/15/20046.367XBT
1021059336.177-3.75610/15/20047.767XBT
1021060336.223-3.45610/15/20049.117XBT
1021060736.293-3.12310/15/200410.483XBT
1021081239.4384.47810/17/200416.183XBT
1021081339.4144.64910/17/200416.817XBT
1021081739.3854.84410/17/200417.650XBT
1021082139.3535.05710/17/200418.517XBT
1021082639.3315.23410/17/200419.317XBT
1021083139.2775.57610/17/200420.767XBT
1021083639.2285.88310/17/200422.117XBT
1021083739.2016.10110/17/200422.983XBT
1021084839.1006.75910/18/20041.783XBT
1021085039.0517.01310/18/20042.767XBT
1021085539.0167.31610/18/20044.083XBT
1021085838.9677.53710/18/20045.000XBT
1021085938.9587.70610/18/20045.667XBT
1021086538.9337.87510/18/20046.367XBT
1021089338.9749.87010/18/200415.619XBT
1131360038.9749.87010/18/200415.721XBT
1131081538.9749.87010/18/200417.638CTD
1131360138.85710.18310/18/200418.262XBT
1021090838.85710.18310/18/200418.350XBT
1131081638.85710.18310/18/200420.283CTD
1021108738.91513.30010/20/20045.677XBT
1131360238.91513.30010/20/20045.765XBT
1131081738.91513.30010/20/20047.699CTD
1021117040.00012.20610/20/200421.259XBT
1131360340.00012.20610/20/200421.341XBT
1131081840.00012.20610/20/200423.283CTD
1021123340.33713.49910/21/20048.466XBT
1131360440.33613.49910/21/20048.572XBT
1131081940.33613.49910/21/200410.489CTD
1021133741.44511.13910/22/20044.172XBT
1131360541.44511.13910/22/20044.254XBT
1131082041.44511.13910/22/20046.198CTD
1021137541.4179.75510/22/200410.767XBT
1021138541.49810.01510/22/200412.050XBT
1021139041.59110.23110/22/200413.117XBT
1021139541.66610.49210/22/200414.183XBT
1021139641.75010.75110/22/200415.300XBT
1021140941.81711.00010/22/200418.717XBT
1021141241.93311.24410/22/200419.950XBT


  Last modified:    Thu, 10-Dec-2009 21:04 UTC NCEI.info@noaa.gov
 
Dept. of Commerce - NOAA - NESDIS - NCEI
* Offsite Link Notification
USA.gov - The U.S. Government's Web Portal